Wind_Speed
43 44 45 46 47 47 48 48 48 46 44 42 39 37 37 39 39 41 42 45 47 51 52 47 47 43 41 36 32 27 24 22 18 19 15 12 7 7 19 10 14 15 18 25 30
42 45 46 48 49 50 50 49 49 49 47 46 43 40 39 38 40 41 43 44 50 51 56 52 50 48 44 41 37 33 29 27 16 23 20 17 12 10 12 8 12 16 19 26 27
35 38 46 48 50 52 53 52 51 51 51 50 48 45 42 40 40 43 44 43 45 49 60 59 54 54 49 46 42 38 33 29 23 25 24 19 15 8 15 15 11 13 18 14 25
43 40 41 40 43 51 56 55 55 54 53 53 52 50 48 44 42 44 46 47 47 48 62 65 59 59 54 50 46 43 41 34 28 27 27 20 12 6 8 14 12 11 4 16 23
50 48 45 45 46 48 50 56 57 57 56 56 55 56 54 50 47 47 46 48 49 49 53 69 64 60 59 53 50 47 46 40 34 31 25 23 17 25 13 17 16 13 22 12 19
50 50 52 53 54 54 55 55 56 59 58 57 57 58 58 56 54 52 50 49 51 49 45 71 69 63 63 59 55 50 48 44 39 34 31 27 23 24 19 16 14 9 19 11 14
38 43 50 54 55 57 58 59 60 58 58 59 59 60 62 63 60 57 55 52 51 52 50 61 72 69 66 64 60 57 53 49 44 38 33 28 26 22 21 20 12 16 15 15 11
32 36 42 46 53 53 54 58 63 61 59 58 61 62 61 66 65 63 60 58 54 53 55 52 74 73 69 68 66 61 57 53 47 42 38 31 27 26 25 20 13 23 26 22 14
36 37 39 45 46 45 47 49 56 60 62 60 58 63 62 66 70 69 66 63 59 56 57 56 67 76 73 73 70 64 61 55 48 44 41 35 32 27 29 21 25 20 9 12 13
39 40 42 45 47 49 47 48 49 55 60 61 60 58 61 65 71 73 71 68 67 62 59 61 61 74 76 72 72 70 65 60 55 50 46 42 39 35 28 28 28 28 15 16 16
37 39 42 42 45 45 47 48 50 51 59 59 65 64 64 63 71 76 76 74 71 68 63 64 62 66 74 78 75 73 68 65 57 56 52 50 44 39 37 35 30 33 21 17 17
38 37 39 40 39 40 41 41 45 50 54 58 62 66 68 67 67 75 80 80 76 74 70 66 66 66 72 77 73 72 71 68 61 61 56 53 49 43 41 35 32 35 31 26 22
35 31 32 32 36 37 39 42 46 51 58 59 62 67 68 69 68 74 80 83 83 79 75 71 72 70 67 73 77 77 73 71 68 64 59 55 51 47 46 44 39 33 30 29 26
33 24 23 20 24 30 39 47 51 59 62 64 69 73 72 75 73 70 72 83 87 84 81 79 73 70 68 69 76 80 78 74 69 66 62 58 53 50 47 48 45 36 31 32 25
37 23 22 27 29 33 41 49 60 69 72 68 74 73 78 80 72 69 68 80 89 90 85 82 75 73 73 70 74 81 79 75 73 68 65 61 55 41 52 48 46 46 45 33 32
45 27 26 31 39 45 51 55 62 67 72 74 78 83 83 82 73 71 71 74 90 94 91 89 82 78 78 76 73 79 76 77 76 71 68 65 62 60 57 51 49 47 48 47 37
52 35 37 45 48 48 43 43 46 52 58 63 66 71 75 74 73 69 69 75 87 95 98 89 85 81 79 78 75 69 76 78 79 76 70 70 70 63 62 55 52 51 49 51 52
53 42 47 53 51 36 32 31 34 36 39 47 52 60 67 69 69 74 72 78 91 96 103 96 94 85 81 80 78 74 74 75 75 77 76 76 71 64 64 61 57 54 53 52 49
57 50 56 61 46 35 25 21 26 29 33 39 46 54 57 60 66 70 73 80 91 99 101 100 98 91 84 83 79 79 74 75 77 78 83 80 73 70 66 65 64 60 56 54 51
60 57 61 62 46 33 22 17 20 24 29 35 43 48 51 56 64 69 78 80 85 98 102 104 99 95 91 86 86 84 83 80 76 75 77 79 78 78 76 71 69 66 62 59 55
64 60 64 61 44 33 22 14 17 21 28 34 40 45 51 56 64 74 79 80 89 97 102 102 100 98 93 88 88 87 87 83 79 80 78 77 79 70 73 76 75 73 70 66 60
71 63 65 63 47 37 21 11 14 18 28 34 41 45 51 55 57 62 70 80 88 95 101 104 105 102 102 95 90 87 89 88 86 83 80 82 83 73 80 77 77 76 75 71 66
69 60 63 62 52 38 22 12 11 16 26 32 40 47 51 56 58 60 64 72 84 94 98 103 106 106 100 98 96 93 94 93 89 90 85 86 80 79 79 77 75 74 74 74 70
62 57 60 62 51 41 26 15 5 13 22 33 40 46 51 53 53 59 64 70 79 86 94 103 109 107 111 110 104 100 94 94 93 91 90 98 85 79 81 78 76 75 73 72 72
56 57 59 61 51 42 32 13 9 7 17 28 37 45 53 55 55 54 57 62 69 77 88 102 110 110 108 104 101 99 98 95 96 97 100 102 90 83 85 82 79 78 77 74 73
52 54 56 59 58 46 33 24 10 6 11 22 32 40 46 56 59 59 58 60 61 67 71 86 106 110 111 108 106 103 101 100 99 97 101 100 92 82 85 87 86 84 81 78 75
48 50 52 57 58 47 43 30 18 6 7 15 25 34 42 49 57 61 61 63 64 64 67 73 89 103 109 111 111 108 106 104 103 102 103 101 95 95 94 94 91 88 86 84 81
Wind_Direction
266 263 259 257 256 254 251 249 248 246 246 245 242 240 236 231 231 226 224 219 215 214 212 210 205 200 197 196 193 189 195 193 189 198 192 190 173 265 254 17 311 320 27 21 5
276 267 262 258 254 253 252 249 246 246 243 240 239 237 234 233 228 227 225 223 218 215 212 212 208 203 200 200 196 192 198 202 190 189 192 192 188 233 240 255 271 6 355 340 5
274 272 268 262 258 255 251 247 246 243 240 239 236 233 233 229 230 227 226 224 221 215 211 211 210 204 203 202 197 195 197 203 197 193 193 196 215 234 239 229 261 321 316 1 14
262 261 260 260 262 258 254 250 245 242 239 236 234 233 229 227 227 226 224 224 221 219 213 211 211 209 207 203 201 196 202 203 196 195 196 194 203 253 202 205 243 321 38 359 356
264 263 257 256 259 257 254 251 249 244 238 236 231 230 229 227 225 225 223 223 223 221 218 211 212 211 210 207 204 201 203 206 196 196 211 199 202 206 186 197 249 240 290 359 352
268 258 257 257 257 255 253 251 248 245 241 236 232 229 226 225 225 224 224 222 221 221 221 212 212 212 213 212 207 203 204 207 202 200 206 207 210 208 214 229 236 249 256 323 340
279 265 264 261 259 259 259 254 250 246 241 237 232 228 225 223 223 223 221 222 221 221 220 215 211 213 213 214 210 206 203 205 206 206 208 217 213 207 208 206 210 231 264 286 310
275 275 269 268 267 261 258 254 252 247 244 236 232 228 226 224 221 220 222 220 219 219 219 217 212 213 214 216 213 210 208 205 207 210 210 213 216 217 205 205 219 243 253 263 269
275 271 272 266 265 261 256 256 251 251 245 243 237 229 225 223 221 219 219 221 217 218 218 218 214 214 213 216 215 212 212 208 210 211 214 212 214 210 198 197 212 219 245 275 290
295 274 272 263 262 257 256 254 251 246 245 243 241 238 230 224 220 220 217 219 219 216 218 217 215 214 216 217 218 216 214 212 217 216 215 217 217 212 216 213 211 221 251 279 274
293 280 277 270 265 262 258 252 249 246 243 243 241 239 238 230 220 219 218 216 219 216 217 218 217 215 216 216 218 217 216 217 222 224 220 222 219 214 219 222 231 231 243 240 265
308 284 283 276 275 264 256 246 243 241 238 239 240 239 239 238 225 216 218 215 215 217 215 217 218 217 216 218 218 220 221 220 228 225 225 222 222 217 219 215 228 237 238 245 252
320 291 285 283 275 264 255 245 241 241 238 236 233 233 233 234 229 217 215 216 214 215 215 215 217 216 216 216 218 220 220 223 227 227 226 224 224 223 221 222 216 238 243 246 253
329 295 284 276 277 266 254 247 245 239 238 237 236 232 232 234 233 222 216 217 214 213 215 214 215 216 217 215 217 219 220 223 227 229 229 226 225 227 229 228 229 218 230 238 241
337 301 284 281 277 269 259 251 245 239 241 237 238 234 236 237 235 230 220 218 215 213 214 215 213 216 216 216 216 218 220 222 224 226 229 228 228 236 231 228 229 225 220 215 242
348 320 304 307 302 292 280 266 253 248 245 240 237 236 237 236 234 229 223 216 215 213 212 213 211 214 215 215 216 217 217 221 224 225 226 227 225 222 226 228 229 230 226 227 218
352 334 324 321 312 302 284 269 259 251 246 242 238 237 236 235 232 229 221 216 215 212 213 211 212 213 216 215 217 215 217 217 221 224 224 227 227 229 229 228 229 231 231 231 231
348 334 330 329 326 312 294 275 261 251 240 231 228 226 225 225 227 228 223 214 213 211 211 209 212 210 214 215 215 216 217 218 220 222 222 224 227 226 230 231 232 230 233 236 238
347 339 336 337 335 324 306 279 257 244 230 221 221 220 220 217 216 218 216 211 210 210 211 211 212 210 211 215 214 216 217 218 219 220 223 225 225 222 227 232 232 234 234 235 237
347 342 341 345 342 336 316 280 251 234 218 212 212 210 210 208 208 209 210 209 209 209 211 210 210 211 212 212 213 215 216 218 219 222 226 225 227 225 229 227 229 231 233 233 236
350 343 345 349 350 347 324 279 243 221 211 206 207 205 202 205 206 206 205 205 207 208 210 210 209 212 213 213 215 216 216 218 220 222 222 224 224 222 226 228 230 232 232 234 232
350 347 348 352 353 355 332 293 240 218 207 202 201 202 199 201 210 211 204 205 207 208 208 209 210 211 213 212 215 218 219 218 219 222 226 228 224 223 226 226 228 231 234 234 232
348 348 350 355 354 358 350 326 242 214 205 203 204 202 203 205 205 206 208 208 207 208 208 209 211 212 213 215 215 216 218 217 220 224 225 228 222 226 230 230 229 230 233 235 234
346 350 352 358 357 357 3 346 273 221 209 205 204 204 207 209 212 210 209 210 209 209 209 210 211 212 213 212 213 216 218 221 221 222 223 230 227 225 230 230 232 233 234 236 237
345 348 351 356 1 1 4 6 335 233 216 210 210 209 206 208 212 212 211 212 214 214 213 211 212 213 215 216 217 218 219 221 222 223 225 229 229 224 229 231 234 235 235 237 238
343 347 352 355 2 7 7 9 11 289 227 216 215 213 213 212 210 213 210 212 213 215 217 219 216 216 215 216 217 217 220 222 224 225 229 230 230 229 234 236 236 235 236 237 238
342 346 351 354 0 4 11 11 9 1 250 224 218 217 216 215 217 217 213 212 216 215 216 217 219 219 219 219 219 219 219 222 224 225 228 229 227 230 230 234 235 237 238 239 239
Height
10886 10886 10886 10887 10889 10891 10894 10899 10903 10908 10912 10917 10920 10924 10929 10934 10938 10943 10947 10952 10958 10963 10970 10976 10982 10988 10992 10998 11003 11008 11010 11013 11015 11017 11020 11021 11022 11024 11022 11022 11020 11016 11014 11009 11006
10876 10874 10873 10874 10876 10877 10881 10885 10889 10895 10901 10905 10910 10914 10920 10925 10929 10934 10939 10944 10950 10956 10963 10970 10977 10983 10987 10993 10998 11003 11007 11010 11011 11014 11017 11018 11020 11020 11022 11023 11019 11016 11014 11012 11010
10863 10862 10862 10862 10863 10864 10865 10870 10875 10879 10886 10892 10898 10904 10910 10915 10920 10923 10930 10935 10942 10948 10954 10962 10968 10974 10980 10986 10992 10998 11001 11005 11009 11011 11014 11016 11017 11020 11021 11022 11019 11019 11017 11014 11010
10847 10846 10846 10846 10848 10851 10852 10854 10859 10864 10870 10878 10885 10893 10899 10905 10910 10914 10921 10927 10933 10940 10946 10953 10961 10968 10974 10979 10987 10992 10997 11000 11005 11009 11011 11014 11016 11019 11019 11020 11019 11020 11015 11013 11012
10833 10833 10831 10832 10832 10834 10836 10840 10844 10848 10854 10862 10870 10878 10886 10894 10900 10904 10910 10917 10923 10931 10937 10945 10953 10961 10968 10974 10981 10987 10991 10997 11001 11004 11008 11011 11014 11015 11017 11019 11018 11020 11017 11014 11014
10818 10816 10817 10816 10816 10817 10819 10823 10828 10833 10839 10846 10854 10862 10871 10881 10886 10893 10899 10906 10913 10921 10928 10936 10944 10953 10959 10966 10972 10979 10985 10991 10996 11000 11004 11008 11011 11013 11016 11017 11018 11018 11017 11014 11016
10802 10802 10801 10801 10801 10802 10804 10807 10810 10817 10823 10831 10838 10845 10855 10862 10873 10881 10887 10894 10902 10910 10918 10925 10935 10941 10949 10956 10963 10970 10976 10984 10990 10995 11000 11004 11009 11010 11013 11016 11017 11015 11013 11015 11018
10790 10787 10786 10784 10784 10785 10785 10789 10794 10800 10806 10815 10821 10829 10839 10847 10857 10866 10874 10882 10891 10898 10906 10913 10921 10932 10938 10946 10953 10962 10971 10978 10984 10991 10996 11001 11004 11007 11010 11013 11015 11016 11014 11015 11018
10776 10773 10771 10769 10768 10768 10769 10772 10778 10783 10790 10797 10806 10814 10824 10830 10841 10850 10860 10869 10878 10886 10894 10902 10910 10918 10930 10933 10946 10956 10964 10974 10979 10986 10991 10996 10998 11003 11007 11010 11012 11013 11011 11014 11016
10764 10759 10755 10753 10752 10753 10754 10757 10762 10767 10774 10781 10790 10798 10805 10816 10824 10833 10845 10855 10863 10873 10881 10890 10898 10909 10917 10930 10940 10947 10956 10967 10974 10981 10985 10990 10993 10998 11004 11007 11008 11009 11011 11012 11015
10749 10743 10740 10739 10738 10738 10740 10743 10747 10752 10758 10766 10773 10781 10786 10797 10805 10817 10827 10839 10850 10859 10869 10877 10888 10897 10904 10915 10924 10940 10951 10958 10969 10971 10978 10982 10987 10994 10999 11003 11006 11008 11011 11012 11012
10735 10730 10727 10725 10724 10724 10725 10729 10732 10735 10741 10747 10755 10764 10769 10777 10788 10799 10809 10821 10833 10844 10853 10866 10876 10883 10894 10905 10926 10930 10939 10950 10957 10963 10969 10976 10982 10988 10992 10998 11002 11003 11007 11009 11011
10724 10718 10716 10714 10713 10712 10713 10716 10718 10721 10723 10731 10737 10744 10752 10759 10768 10780 10791 10804 10816 10828 10841 10850 10858 10871 10883 10899 10905 10918 10931 10939 10943 10952 10960 10969 10977 10982 10986 10991 10996 10999 11001 11005 11008
10714 10709 10706 10704 10703 10702 10702 10702 10703 10703 10705 10714 10718 10725 10734 10739 10749 10762 10775 10786 10800 10813 10824 10833 10848 10864 10874 10882 10894 10907 10916 10925 10935 10941 10951 10959 10969 10976 10980 10985 10989 10995 10995 10999 11003
10706 10700 10697 10694 10691 10688 10685 10682 10680 10679 10679 10697 10697 10712 10713 10719 10733 10745 10758 10769 10782 10795 10809 10824 10839 10850 10861 10871 10880 10891 10907 10915 10918 10929 10941 10951 10963 10967 10971 10976 10981 10986 10990 10993 10997
10697 10691 10688 10683 10677 10670 10662 10655 10652 10652 10656 10667 10672 10679 10689 10697 10716 10723 10737 10752 10764 10778 10790 10802 10820 10832 10844 10856 10866 10882 10898 10901 10910 10918 10928 10940 10949 10954 10964 10967 10972 10977 10982 10986 10992
10688 10682 10677 10669 10657 10643 10632 10626 10624 10627 10630 10640 10649 10657 10666 10679 10691 10706 10719 10732 10743 10761 10771 10795 10808 10819 10832 10847 10857 10876 10877 10886 10895 10909 10917 10924 10931 10948 10950 10957 10962 10967 10972 10979 10983
10677 10671 10662 10649 10632 10618 10609 10606 10605 10606 10612 10616 10624 10631 10641 10656 10673 10681 10695 10709 10724 10739 10751 10774 10784 10804 10819 10834 10847 10858 10866 10876 10885 10894 10898 10905 10921 10933 10938 10946 10951 10957 10962 10968 10975
10668 10659 10647 10631 10613 10601 10593 10591 10589 10591 10596 10601 10606 10615 10626 10639 10651 10662 10677 10688 10704 10720 10737 10757 10767 10787 10805 10815 10836 10844 10857 10860 10864 10875 10875 10893 10911 10917 10929 10935 10938 10946 10954 10960 10967
10659 10647 10634 10618 10601 10590 10583 10580 10580 10581 10585 10589 10594 10605 10615 10626 10635 10646 10655 10680 10695 10705 10720 10735 10760 10773 10786 10801 10814 10827 10835 10844 10856 10863 10872 10883 10896 10900 10912 10920 10925 10934 10942 10949 10958
10652 10640 10624 10609 10595 10585 10576 10572 10572 10573 10576 10581 10587 10595 10605 10614 10621 10626 10642 10664 10673 10689 10705 10728 10749 10760 10775 10790 10800 10813 10820 10835 10844 10847 10853 10872 10873 10898 10900 10905 10910 10918 10928 10937 10950
10647 10633 10617 10602 10590 10580 10571 10566 10565 10567 10570 10575 10580 10589 10598 10604 10615 10627 10637 10648 10661 10674 10692 10706 10727 10742 10748 10772 10788 10802 10809 10818 10827 10836 10847 10849 10863 10880 10871 10886 10895 10903 10914 10925 10940
10641 10628 10615 10599 10585 10576 10567 10562 10560 10562 10565 10570 10577 10582 10590 10596 10606 10618 10628 10638 10649 10661 10680 10696 10710 10724 10748 10757 10768 10782 10789 10800 10814 10818 10832 10831 10853 10859 10861 10877 10882 10891 10900 10910 10924
10637 10625 10612 10599 10584 10572 10566 10560 10558 10559 10562 10565 10570 10578 10584 10591 10600 10610 10620 10629 10638 10650 10666 10680 10691 10711 10709 10718 10740 10758 10779 10789 10801 10807 10817 10801 10833 10850 10851 10862 10870 10877 10885 10894 10906
10632 10620 10608 10598 10584 10571 10563 10560 10556 10557 10558 10562 10566 10572 10577 10586 10594 10603 10615 10624 10635 10645 10655 10663 10675 10691 10709 10729 10741 10754 10762 10773 10782 10791 10787 10785 10816 10834 10836 10845 10855 10863 10870 10880 10889
10631 10619 10607 10596 10584 10575 10564 10559 10556 10554 10556 10558 10561 10567 10573 10580 10585 10592 10604 10614 10625 10633 10644 10655 10668 10678 10691 10705 10720 10732 10743 10753 10762 10773 10774 10786 10804 10828 10828 10830 10838 10846 10855 10865 10874
10627 10619 10606 10595 10586 10575 10567 10559 10555 10553 10552 10554 10557 10561 10567 10572 10580 10586 10595 10604 10612 10623 10632 10640 10650 10665 10678 10687 10699 10711 10722 10730 10742 10751 10752 10765 10790 10797 10805 10809 10821 10830 10838 10847 10857